Weather History for KFLL - January, 2012

Change the Weather History Date:

Monday, January 30, 2012

  Actual Average Record
Temperature  
Mean Temperature 74 °F 70 °F  
Max Temperature 77 °F 77 °F 85 °F (1991)
Min Temperature 70 °F 63 °F 38 °F (1952)
Degree Days  
Heating Degree Days 0 1  
Month to date heating degree days 47 46  
Since 1 July heating degree days 48 78  
Cooling Degree Days 9 6  
Month to date cooling degree days 156 166  
Year to date cooling degree days 156 166  
Growing Degree Days 23 (Base 50)    
Moisture  
Dew Point 57 °F    
Average Humidity 60    
Maximum Humidity 66    
Minimum Humidity 53    
Precipitation  
Precipitation 0.00 in 0.18 in 1.30 in (1953)
Month to date precipitation 0.20 3.45  
Year to date precipitation 0.20 3.45  
Snow  
Snow 0.00 in - - ()
Month to date snowfall 0.0  
Since 1 July snowfall 0.0  
Snow Depth 0.00 in    
Sea Level Pressure  
Sea Level Pressure 30.25 in    
Wind  
Wind Speed 16 mph (ENE)    
Max Wind Speed 22 mph    
Max Gust Speed 28 mph    
Visibility 10 miles    
Events      
T = Trace of Precipitation, MM = Missing Value Source: NWS Daily Summary

Daily Weather History Graph

Daily Weather History Graph

Search for Another Location

Airport or City:

Trip Planner

Search our weather history database for the weather conditions in past years. The results will help you decide how hot, cold, wet, or windy it might be!

Date:

Astronomy

Jan. 30, 2012 Rise Set
Actual Time 7:05 AM EST 6:02 PM EST
Civil Twilight 6:41 AM EST 6:26 PM EST
Nautical Twilight 6:13 AM EST 6:54 PM EST
Astronomical Twilight 5:46 AM EST 7:21 PM EST
Moon 11:17 AM EST No Moon Set
Length of Visible Light 11h 44m
Length of Day
10h 56m
Waxing Crescent, 46% of the Moon is Illuminated
Jan 30
Waxing Crescent
Jan 30
First Quarter
Feb 7
Full
Feb 14
Last Quarter
Feb 21
New

Hourly Weather History & Observations

Time (EST) Temp. Dew Point Humidity Pressure Visibility Wind Dir Wind Speed Gust Speed Precip Events Conditions
12:53 AM 71.1 °F 59.0 °F 66% 30.23 in 10.0 mi NE 15.0 mph 19.6 mph N/A   Scattered Clouds
1:53 AM 71.1 °F 57.9 °F 63% 30.22 in 10.0 mi NE 12.7 mph - N/A   Partly Cloudy
2:53 AM 71.1 °F 57.9 °F 63% 30.21 in 10.0 mi ENE 13.8 mph - N/A   Scattered Clouds
3:53 AM 71.1 °F 57.0 °F 61% 30.20 in 10.0 mi ENE 11.5 mph - N/A   Scattered Clouds
4:53 AM 71.1 °F 57.9 °F 63% 30.20 in 10.0 mi ENE 16.1 mph 23.0 mph N/A   Scattered Clouds
5:53 AM 71.1 °F 55.9 °F 59% 30.21 in 10.0 mi ENE 13.8 mph 21.9 mph N/A   Scattered Clouds
6:53 AM 71.1 °F 57.0 °F 61% 30.23 in 10.0 mi NE 15.0 mph - N/A   Scattered Clouds
7:53 AM 72.0 °F 57.9 °F 61% 30.25 in 10.0 mi ENE 12.7 mph 21.9 mph N/A   Mostly Cloudy
8:53 AM 72.0 °F 57.0 °F 59% 30.27 in 10.0 mi ENE 16.1 mph - N/A   Mostly Cloudy
9:53 AM 73.9 °F 57.9 °F 57% 30.29 in 10.0 mi ENE 17.3 mph 24.2 mph N/A   Scattered Clouds
10:53 AM 75.9 °F 57.0 °F 52% 30.30 in 10.0 mi East 17.3 mph - N/A   Scattered Clouds
11:53 AM 75.9 °F 57.0 °F 52% 30.28 in 10.0 mi ENE 19.6 mph 25.3 mph N/A   Scattered Clouds
12:53 PM 75.9 °F 57.0 °F 52% 30.27 in 10.0 mi ENE 18.4 mph 25.3 mph N/A   Scattered Clouds
1:53 PM 75.9 °F 57.0 °F 52% 30.25 in 10.0 mi ENE 18.4 mph - N/A   Mostly Cloudy
2:53 PM 75.9 °F 57.9 °F 54% 30.24 in 10.0 mi ENE 16.1 mph - N/A   Mostly Cloudy
3:53 PM 75.0 °F 57.0 °F 53% 30.24 in 10.0 mi ENE 17.3 mph - N/A   Scattered Clouds
4:53 PM 73.9 °F 57.0 °F 55% 30.24 in 10.0 mi ENE 18.4 mph 25.3 mph N/A   Partly Cloudy
5:53 PM 73.0 °F 55.9 °F 55% 30.25 in 10.0 mi ENE 17.3 mph - N/A   Partly Cloudy
6:53 PM 72.0 °F 55.9 °F 57% 30.25 in 10.0 mi ENE 16.1 mph 21.9 mph N/A   Scattered Clouds
7:53 PM 72.0 °F 57.0 °F 59% 30.26 in 10.0 mi ENE 15.0 mph - N/A   Partly Cloudy
8:53 PM 72.0 °F 57.9 °F 61% 30.27 in 10.0 mi ENE 16.1 mph 24.2 mph N/A   Partly Cloudy
9:53 PM 72.0 °F 59.0 °F 64% 30.28 in 10.0 mi ENE 15.0 mph 21.9 mph N/A   Mostly Cloudy
10:53 PM 72.0 °F 59.0 °F 64% 30.29 in 10.0 mi ENE 16.1 mph 24.2 mph N/A   Mostly Cloudy
11:53 PM 71.1 °F 59.0 °F 66% 30.27 in 10.0 mi ENE 12.7 mph - N/A   Scattered Clouds